| time (UTC) | temp F | wind direction | speed knots | gust knots | rain 1hr in | rain 24hr in | rain mn in | humidity % | barometer mb |
| 20260504050520 | 45 | 127 | 0.0 | 0.0 | 0.00 | 0.00 | 0.00 | 86 | 1004.7 |
| 20260504050017 | 46 | 136 | 0.0 | 0.9 | 0.00 | 0.00 | 0.00 | 85 | 1004.9 |
| 20260504045513 | 46 | 143 | 0.0 | 0.0 | 0.00 | 0.00 | 0.00 | 85 | 1004.9 |
| 20260504045009 | 46 | 141 | 0.0 | 0.0 | 0.00 | 0.00 | 0.00 | 84 | 1004.9 |
| 20260504044507 | 46 | 161 | 0.0 | 0.0 | 0.00 | 0.00 | 0.00 | 83 | 1005.1 |
| 20260504044003 | 46 | 169 | 0.9 | 0.9 | 0.00 | 0.00 | 0.00 | 84 | 1005.0 |
| 20260504043500 | 47 | 143 | 0.0 | 0.9 | 0.00 | 0.00 | 0.00 | 86 | 1005.2 |
| 20260504042958 | 46 | 140 | 0.0 | 0.0 | 0.00 | 0.00 | 0.00 | 84 | 1005.4 |
| 20260504042454 | 46 | 152 | 0.0 | 0.0 | 0.00 | 0.00 | 0.00 | 82 | 1005.5 |
| 20260504041951 | 46 | 155 | 0.0 | 0.9 | 0.00 | 0.00 | 0.00 | 82 | 1005.2 |
| 20260504041448 | 47 | 185 | 0.0 | 0.0 | 0.00 | 0.00 | 0.00 | 81 | 1005.3 |
| 20260504040943 | 47 | 182 | 0.0 | 0.0 | 0.00 | 0.00 | 0.00 | 81 | 1005.5 |
| 20260504040441 | 46 | 179 | 0.0 | 0.9 | 0.00 | 0.00 | 0.00 | 80 | 1005.3 |
| 20260504035937 | 47 | 192 | 0.0 | 0.0 | 0.00 | 0.00 | 0.00 | 79 | 1005.5 |
| 20260504035435 | 48 | 192 | 0.0 | 0.0 | 0.00 | 0.00 | 0.00 | 78 | 1005.8 |
| 20260504034931 | 48 | 180 | 0.0 | 0.0 | 0.00 | 0.00 | 0.00 | 77 | 1005.7 |
| 20260504034429 | 48 | 185 | 0.0 | 0.0 | 0.00 | 0.00 | 0.00 | 79 | 1005.7 |
| 20260504033926 | 48 | 185 | 0.0 | 0.0 | 0.00 | 0.00 | 0.00 | 80 | 1005.8 |
| 20260504033423 | 48 | 191 | 0.0 | 0.0 | 0.00 | 0.00 | 0.00 | 78 | 1005.8 |
| 20260504032920 | 48 | 205 | 0.0 | 0.0 | 0.00 | 0.00 | 0.00 | 74 | 1006.0 |
| 20260504032417 | 49 | 198 | 0.0 | 0.0 | 0.00 | 0.00 | 0.00 | 73 | 1005.9 |
| 20260504031914 | 50 | 156 | 0.0 | 0.0 | 0.00 | 0.00 | 0.00 | 72 | 1006.0 |
| 20260504031411 | 50 | 161 | 0.0 | 0.0 | 0.00 | 0.00 | 0.00 | 69 | 1006.2 |
| 20260504030908 | 51 | 165 | 0.0 | 0.0 | 0.00 | 0.00 | 0.00 | 65 | 1006.2 |
| 20260504030405 | 51 | 165 | 0.0 | 0.0 | 0.00 | 0.00 | 0.00 | 61 | 1006.0 |
| 20260504025900 | 52 | 165 | 0.0 | 0.0 | 0.00 | 0.00 | 0.00 | 60 | 1006.1 |
| 20260504025358 | 53 | 165 | 0.0 | 0.0 | 0.00 | 0.00 | 0.00 | 57 | 1006.1 |
| 20260504024854 | 54 | 165 | 0.0 | 0.0 | 0.00 | 0.00 | 0.00 | 52 | 1006.0 |
| 20260504024351 | 56 | 165 | 0.0 | 0.0 | 0.00 | 0.00 | 0.00 | 50 | 1006.2 |
| 20260504023848 | 57 | 165 | 0.0 | 0.0 | 0.00 | 0.00 | 0.00 | 48 | 1006.2 |
| 20260504023345 | 58 | 201 | 0.0 | 0.0 | 0.00 | 0.00 | 0.00 | 44 | 1006.0 |
| 20260504022840 | 58 | 234 | 0.0 | 0.9 | 0.00 | 0.00 | 0.00 | 44 | 1006.1 |
| 20260504022337 | 57 | 238 | 0.0 | 0.9 | 0.00 | 0.00 | 0.00 | 44 | 1005.9 |
| 20260504021833 | 57 | 228 | 0.0 | 0.0 | 0.00 | 0.00 | 0.00 | 45 | 1006.0 |
| 20260504021331 | 58 | 238 | 0.0 | 0.0 | 0.00 | 0.00 | 0.00 | 46 | 1006.1 |
| 20260504020828 | 58 | 233 | 0.0 | 0.0 | 0.00 | 0.00 | 0.00 | 45 | 1006.2 |
| 20260504020325 | 58 | 237 | 0.0 | 0.0 | 0.00 | 0.00 | 0.00 | 45 | 1006.1 |
| 20260504015820 | 59 | 236 | 0.0 | 0.0 | 0.00 | 0.00 | 0.00 | 45 | 1006.1 |
| 20260504015317 | 60 | 228 | 0.0 | 0.0 | 0.00 | 0.00 | 0.00 | 43 | 1005.8 |
| 20260504014814 | 61 | 229 | 0.0 | 0.0 | 0.00 | 0.00 | 0.00 | 41 | 1006.2 |
| 20260504014309 | 61 | 244 | 0.0 | 0.0 | 0.00 | 0.00 | 0.00 | 39 | 1006.1 |
| 20260504013808 | 62 | 240 | 0.0 | 0.0 | 0.00 | 0.00 | 0.00 | 39 | 1006.0 |
| 20260504013305 | 64 | 230 | 0.0 | 0.0 | 0.00 | 0.00 | 0.00 | 36 | 1006.0 |
| 20260504012801 | 64 | 263 | 0.9 | 0.9 | 0.00 | 0.00 | 0.00 | 35 | 1006.1 |
| 20260504012259 | 65 | 270 | 0.0 | 0.9 | 0.00 | 0.00 | 0.00 | 34 | 1005.9 |
| 20260504011756 | 66 | 262 | 0.9 | 1.7 | 0.00 | 0.00 | 0.00 | 33 | 1005.8 |
| 20260504011253 | 67 | 279 | 1.7 | 1.7 | 0.00 | 0.00 | 0.00 | 33 | 1005.8 |
| 20260504010749 | 67 | 277 | 2.6 | 2.6 | 0.00 | 0.00 | 0.00 | 32 | 1005.9 |
| 20260504010244 | 67 | 268 | 5.2 | 7.0 | 0.00 | 0.00 | 0.00 | 32 | 1006.0 |
| 20260504005741 | 68 | 355 | 2.6 | 2.6 | 0.00 | 0.00 | 0.00 | 31 | 1005.7 |
| 20260504005238 | 69 | 280 | 0.9 | 1.7 | 0.00 | 0.00 | 0.00 | 31 | 1006.1 |
| 20260504004736 | 69 | 276 | 4.3 | 5.2 | 0.00 | 0.00 | 0.00 | 30 | 1005.8 |
| 20260504004233 | 69 | 293 | 1.7 | 1.7 | 0.00 | 0.00 | 0.00 | 30 | 1005.7 |
| 20260504003729 | 70 | 286 | 2.6 | 2.6 | 0.00 | 0.00 | 0.00 | 30 | 1005.8 |
| 20260504003226 | 70 | 276 | 5.2 | 7.0 | 0.00 | 0.00 | 0.00 | 29 | 1005.8 |
| 20260504002723 | 70 | 302 | 7.0 | 8.7 | 0.00 | 0.00 | 0.00 | 29 | 1005.8 |
| 20260504002220 | 70 | 277 | 6.1 | 7.8 | 0.00 | 0.00 | 0.00 | 29 | 1005.9 |
| 20260504001718 | 71 | 345 | 3.5 | 5.2 | 0.00 | 0.00 | 0.00 | 30 | 1005.8 |
| 20260504001215 | 71 | 267 | 7.8 | 8.7 | 0.00 | 0.00 | 0.00 | 28 | 1005.4 |
| 20260504000711 | 71 | 297 | 4.3 | 5.2 | 0.00 | 0.00 | 0.00 | 29 | 1005.5 |
| 20260504000208 | 71 | 268 | 4.3 | 5.2 | 0.00 | 0.00 | 0.00 | 28 | 1005.7 |
| 20260503235707 | 71 | 259 | 3.5 | 4.3 | 0.00 | 0.00 | 0.00 | 29 | 1005.7 |
| 20260503235203 | 72 | 304 | 3.5 | 4.3 | 0.00 | 0.00 | 0.00 | 29 | 1005.4 |
| 20260503234701 | 72 | 315 | 5.2 | 6.1 | 0.00 | 0.00 | 0.00 | 28 | 1005.8 |
| 20260503234159 | 72 | 285 | 2.6 | 4.3 | 0.00 | 0.00 | 0.00 | 28 | 1005.6 |
| 20260503233655 | 72 | 293 | 5.2 | 6.1 | 0.00 | 0.00 | 0.00 | 27 | 1005.5 |
| 20260503233151 | 72 | 268 | 5.2 | 7.0 | 0.00 | 0.00 | 0.00 | 27 | 1005.5 |
| 20260503232648 | 72 | 302 | 3.5 | 4.3 | 0.00 | 0.00 | 0.00 | 27 | 1005.5 |
| 20260503232145 | 72 | 279 | 4.3 | 5.2 | 0.00 | 0.00 | 0.00 | 28 | 1005.8 |
| 20260503231644 | 73 | 320 | 6.1 | 8.7 | 0.00 | 0.00 | 0.00 | 25 | 1005.4 |
| 20260503231140 | 73 | 275 | 2.6 | 2.6 | 0.00 | 0.00 | 0.00 | 27 | 1005.4 |
| 20260503230637 | 72 | 319 | 4.3 | 6.1 | 0.00 | 0.00 | 0.00 | 27 | 1005.6 |
| 20260503230134 | 73 | 317 | 4.3 | 5.2 | 0.00 | 0.00 | 0.00 | 27 | 1005.7 |
| 20260503225631 | 73 | 316 | 5.2 | 6.1 | 0.00 | 0.00 | 0.00 | 26 | 1005.5 |
| 20260503225131 | 73 | 301 | 4.3 | 7.0 | 0.00 | 0.00 | 0.00 | 25 | 1005.6 |
| 20260503224629 | 73 | 302 | 10.4 | 13.0 | 0.00 | 0.00 | 0.00 | 24 | 1005.4 |
| 20260503224126 | 73 | 323 | 4.3 | 6.1 | 0.00 | 0.00 | 0.00 | 28 | 1005.7 |
| 20260503223624 | 73 | 283 | 6.1 | 7.8 | 0.00 | 0.00 | 0.00 | 26 | 1005.5 |
| 20260503223120 | 73 | 10 | 4.3 | 5.2 | 0.00 | 0.00 | 0.00 | 27 | 1005.3 |
| 20260503222618 | 73 | 338 | 2.6 | 2.6 | 0.00 | 0.00 | 0.00 | 29 | 1005.4 |
| 20260503222115 | 73 | 324 | 8.7 | 11.3 | 0.00 | 0.00 | 0.00 | 25 | 1005.4 |
| 20260503221613 | 73 | 302 | 3.5 | 5.2 | 0.00 | 0.00 | 0.00 | 26 | 1005.5 |
| 20260503221111 | 73 | 316 | 6.1 | 7.0 | 0.00 | 0.00 | 0.00 | 27 | 1005.5 |
| 20260503220607 | 74 | 285 | 5.2 | 6.1 | 0.00 | 0.00 | 0.00 | 27 | 1005.7 |
| 20260503220104 | 73 | 257 | 3.5 | 4.3 | 0.00 | 0.00 | 0.00 | 26 | 1005.5 |
| 20260503215601 | 73 | 328 | 7.8 | 9.6 | 0.00 | 0.00 | 0.00 | 25 | 1005.5 |
| 20260503215057 | 73 | 27 | 4.3 | 6.1 | 0.00 | 0.00 | 0.00 | 26 | 1005.7 |
| 20260503214556 | 73 | 266 | 6.1 | 7.8 | 0.00 | 0.00 | 0.00 | 27 | 1005.7 |
| 20260503214052 | 73 | 283 | 12.2 | 13.9 | 0.00 | 0.00 | 0.00 | 24 | 1005.6 |
| 20260503213551 | 73 | 320 | 7.8 | 8.7 | 0.00 | 0.00 | 0.00 | 26 | 1005.6 |
| 20260503213047 | 73 | 355 | 8.7 | 12.2 | 0.00 | 0.00 | 0.00 | 28 | 1005.7 |
| 20260503212544 | 74 | 312 | 6.1 | 7.8 | 0.00 | 0.00 | 0.00 | 26 | 1005.7 |
| 20260503212042 | 74 | 297 | 4.3 | 7.0 | 0.00 | 0.00 | 0.00 | 27 | 1005.7 |
| 20260503211539 | 73 | 0 | 4.3 | 5.2 | 0.00 | 0.00 | 0.00 | 29 | 1005.6 |
| 20260503211034 | 73 | 318 | 6.1 | 7.0 | 0.00 | 0.00 | 0.00 | 26 | 1005.7 |
| 20260503210531 | 74 | 278 | 7.8 | 8.7 | 0.00 | 0.00 | 0.00 | 28 | 1005.7 |
| 20260503210027 | 73 | 288 | 5.2 | 7.0 | 0.00 | 0.00 | 0.00 | 27 | 1005.7 |
| 20260503205524 | 74 | 354 | 5.2 | 6.1 | 0.00 | 0.00 | 0.00 | 28 | 1005.6 |
| 20260503205020 | 74 | 330 | 8.7 | 11.3 | 0.00 | 0.00 | 0.00 | 26 | 1005.6 |
| 20260503204517 | 74 | 72 | 3.5 | 5.2 | 0.00 | 0.00 | 0.00 | 30 | 1005.7 |
| 20260503204014 | 74 | 330 | 8.7 | 11.3 | 0.00 | 0.00 | 0.00 | 27 | 1005.8 |
| 20260503203512 | 73 | 284 | 5.2 | 6.1 | 0.00 | 0.00 | 0.00 | 28 | 1005.8 |
| 20260503203009 | 74 | 300 | 4.3 | 6.1 | 0.00 | 0.00 | 0.00 | 27 | 1005.7 |
| 20260503202506 | 74 | 343 | 7.0 | 9.6 | 0.00 | 0.00 | 0.00 | 28 | 1005.9 |
| 20260503202004 | 75 | 327 | 2.6 | 4.3 | 0.00 | 0.00 | 0.00 | 28 | 1005.8 |
| 20260503201502 | 74 | 27 | 5.2 | 7.0 | 0.00 | 0.00 | 0.00 | 27 | 1005.7 |
| 20260503200959 | 74 | 334 | 6.1 | 7.0 | 0.00 | 0.00 | 0.00 | 26 | 1005.9 |
| 20260503200455 | 74 | 346 | 4.3 | 6.1 | 0.00 | 0.00 | 0.00 | 30 | 1006.0 |
| 20260503195952 | 74 | 287 | 5.2 | 6.1 | 0.00 | 0.00 | 0.00 | 29 | 1005.7 |
| 20260503195449 | 73 | 343 | 6.1 | 7.0 | 0.00 | 0.00 | 0.00 | 28 | 1005.7 |
| 20260503194945 | 74 | 256 | 3.5 | 4.3 | 0.00 | 0.00 | 0.00 | 31 | 1006.0 |
| 20260503194443 | 73 | 19 | 2.6 | 2.6 | 0.00 | 0.00 | 0.00 | 31 | 1005.9 |
| 20260503193938 | 73 | 324 | 9.6 | 13.0 | 0.00 | 0.00 | 0.00 | 28 | 1005.8 |
| 20260503193434 | 73 | 316 | 8.7 | 11.3 | 0.00 | 0.00 | 0.00 | 31 | 1006.2 |
| 20260503192929 | 72 | 307 | 8.7 | 13.0 | 0.00 | 0.00 | 0.00 | 29 | 1005.9 |
| 20260503192426 | 73 | 353 | 3.5 | 4.3 | 0.00 | 0.00 | 0.00 | 33 | 1006.0 |
| 20260503191921 | 73 | 331 | 7.0 | 11.3 | 0.00 | 0.00 | 0.00 | 31 | 1006.1 |
| 20260503191420 | 73 | 308 | 6.1 | 7.0 | 0.00 | 0.00 | 0.00 | 33 | 1006.2 |
| 20260503190915 | 72 | 359 | 4.3 | 7.0 | 0.00 | 0.00 | 0.00 | 38 | 1006.0 |
| 20260503190413 | 72 | 337 | 12.2 | 14.8 | 0.00 | 0.00 | 0.00 | 32 | 1006.0 |
| 20260503185909 | 72 | 342 | 5.2 | 6.1 | 0.00 | 0.00 | 0.00 | 34 | 1006.2 |
| 20260503185406 | 72 | 303 | 7.8 | 11.3 | 0.00 | 0.00 | 0.00 | 35 | 1006.2 |
| 20260503184905 | 72 | 300 | 7.8 | 9.6 | 0.00 | 0.00 | 0.00 | 34 | 1006.2 |
| 20260503184402 | 72 | 35 | 5.2 | 7.0 | 0.00 | 0.00 | 0.00 | 37 | 1006.1 |
| 20260503183858 | 71 | 356 | 5.2 | 5.2 | 0.00 | 0.00 | 0.00 | 36 | 1006.1 |
| 20260503183355 | 71 | 317 | 7.8 | 8.7 | 0.00 | 0.00 | 0.00 | 36 | 1006.1 |
| 20260503182853 | 71 | 328 | 13.0 | 15.6 | 0.00 | 0.00 | 0.00 | 35 | 1006.2 |
| 20260503182351 | 71 | 297 | 6.1 | 7.8 | 0.00 | 0.00 | 0.00 | 37 | 1006.3 |
| 20260503181848 | 71 | 17 | 4.3 | 6.1 | 0.00 | 0.00 | 0.00 | 40 | 1006.0 |
| 20260503181345 | 70 | 315 | 5.2 | 7.0 | 0.00 | 0.00 | 0.00 | 38 | 1006.3 |
| 20260503180842 | 70 | 351 | 6.1 | 7.0 | 0.00 | 0.00 | 0.00 | 38 | 1006.3 |
| 20260503180340 | 70 | 354 | 12.2 | 13.9 | 0.00 | 0.00 | 0.00 | 35 | 1006.6 |
| 20260503175836 | 70 | 356 | 7.8 | 11.3 | 0.00 | 0.00 | 0.00 | 36 | 1006.6 |
| 20260503175334 | 70 | 321 | 10.4 | 13.9 | 0.00 | 0.00 | 0.00 | 35 | 1006.2 |
| 20260503174829 | 70 | 305 | 7.8 | 12.2 | 0.00 | 0.00 | 0.00 | 38 | 1006.4 |
| 20260503174328 | 70 | 1 | 5.2 | 8.7 | 0.00 | 0.00 | 0.00 | 41 | 1006.3 |
| 20260503173823 | 70 | 312 | 13.0 | 17.4 | 0.00 | 0.00 | 0.00 | 38 | 1006.4 |
| 20260503173319 | 70 | 265 | 3.5 | 4.3 | 0.00 | 0.00 | 0.00 | 40 | 1006.4 |
| 20260503172816 | 70 | 6 | 7.0 | 8.7 | 0.00 | 0.00 | 0.00 | 40 | 1006.2 |
| 20260503172314 | 70 | 340 | 5.2 | 7.8 | 0.00 | 0.00 | 0.00 | 42 | 1006.3 |
| 20260503171810 | 70 | 0 | 4.3 | 5.2 | 0.00 | 0.00 | 0.00 | 43 | 1006.3 |
| 20260503171306 | 69 | 342 | 9.6 | 11.3 | 0.00 | 0.00 | 0.00 | 40 | 1006.4 |
| 20260503170804 | 70 | 343 | 7.0 | 7.8 | 0.00 | 0.00 | 0.00 | 41 | 1006.6 |
| 20260503170300 | 69 | 336 | 8.7 | 9.6 | 0.00 | 0.00 | 0.00 | 40 | 1006.4 |
| 20260503150653 | 61 | 287 | 5.2 | 6.1 | 0.00 | 0.00 | 0.00 | 45 | 1006.6 |
| 20260503150149 | 61 | 283 | 5.2 | 7.0 | 0.00 | 0.00 | 0.00 | 46 | 1006.6 |
| 20260503140113 | 57 | 173 | 2.6 | 2.6 | 0.00 | 0.00 | 0.00 | 52 | 1006.9 |
| 20260503131042 | 54 | 183 | 3.5 | 4.3 | 0.00 | 0.00 | 0.00 | 54 | 1007.5 |
| 20260503130539 | 54 | 229 | 2.6 | 4.3 | 0.00 | 0.00 | 0.00 | 55 | 1007.4 |
| 20260503110435 | 52 | 158 | 7.0 | 7.8 | 0.00 | 0.00 | 0.00 | 53 | 1008.1 |
| 20260503090327 | 52 | 197 | 0.9 | 0.9 | 0.00 | 0.00 | 0.00 | 53 | 1011.5 |
| 20260503081254 | 54 | 174 | 2.6 | 4.3 | 0.00 | 0.00 | 0.00 | 48 | 1011.0 |
| 20260503080750 | 54 | 170 | 4.3 | 5.2 | 0.00 | 0.00 | 0.00 | 47 | 1011.3 |
| 20260503080248 | 55 | 224 | 5.2 | 6.1 | 0.00 | 0.00 | 0.00 | 45 | 1011.5 |
| 20260503072724 | 53 | 201 | 3.5 | 5.2 | 0.00 | 0.00 | 0.00 | 50 | 1011.6 |
| 20260503072221 | 53 | 170 | 1.7 | 1.7 | 0.00 | 0.00 | 0.00 | 50 | 1011.6 |
| 20260503071718 | 53 | 217 | 2.6 | 2.6 | 0.00 | 0.00 | 0.00 | 49 | 1011.8 |
| 20260503071215 | 53 | 223 | 3.5 | 5.2 | 0.00 | 0.00 | 0.00 | 51 | 1011.3 |
| 20260503070712 | 54 | 214 | 0.9 | 0.9 | 0.00 | 0.00 | 0.00 | 51 | 1011.5 |
| 20260503070209 | 54 | 209 | 1.7 | 1.7 | 0.00 | 0.00 | 0.00 | 50 | 1011.5 |